Temp
-10 -10 -10 -10 -10 -10 -10 -10 -10 -10 -10 -10 -10 -10 -10 -10 -10 -10 -10 -10 -10 -9 -9 -9 -9 -10 -10 -10 -10 -10 -10 -10 -10 -10 -10 -10 -10 -10 -10 -10 -10 -10 -10 -10 -9
-10 -10 -10 -10 -10 -10 -10 -10 -10 -10 -10 -10 -10 -10 -10 -10 -10 -10 -10 -10 -10 -10 -9 -9 -9 -10 -10 -10 -10 -10 -10 -10 -10 -10 -10 -10 -10 -10 -10 -10 -10 -10 -10 -10 -9
-10 -10 -10 -10 -10 -10 -10 -10 -10 -10 -10 -10 -10 -10 -10 -10 -10 -10 -10 -10 -10 -10 -10 -10 -10 -10 -10 -10 -10 -10 -10 -10 -10 -10 -10 -10 -10 -10 -10 -10 -10 -10 -10 -10 -10
-10 -10 -10 -10 -10 -10 -10 -10 -10 -10 -10 -11 -11 -11 -11 -10 -10 -10 -10 -10 -10 -10 -10 -10 -9 -9 -10 -10 -10 -10 -10 -10 -10 -10 -10 -10 -10 -10 -10 -10 -10 -10 -10 -10 -10
-10 -10 -10 -10 -10 -10 -11 -11 -11 -11 -11 -11 -11 -11 -11 -10 -10 -10 -10 -10 -10 -10 -10 -9 -9 -9 -9 -10 -10 -10 -10 -10 -10 -10 -10 -10 -10 -10 -10 -10 -10 -10 -10 -10 -10
-10 -10 -10 -10 -10 -11 -11 -11 -11 -11 -11 -11 -11 -11 -11 -11 -10 -10 -10 -10 -10 -10 -10 -9 -9 -9 -9 -9 -10 -10 -10 -10 -10 -10 -10 -10 -11 -10 -10 -10 -10 -10 -10 -10 -10
-10 -10 -10 -10 -11 -11 -11 -11 -12 -11 -11 -11 -11 -11 -11 -10 -10 -10 -10 -9 -9 -9 -9 -9 -9 -9 -10 -10 -10 -10 -10 -10 -11 -10 -10 -11 -11 -10 -10 -10 -10 -10 -10 -10 -10
-10 -10 -10 -11 -11 -11 -11 -12 -12 -12 -12 -11 -11 -11 -11 -10 -10 -10 -10 -10 -10 -10 -10 -10 -10 -10 -10 -10 -10 -10 -10 -10 -11 -11 -11 -11 -11 -11 -10 -10 -10 -10 -11 -11 -10
-10 -10 -10 -11 -11 -12 -12 -12 -12 -12 -11 -11 -11 -11 -11 -11 -11 -11 -11 -11 -11 -11 -11 -11 -11 -11 -11 -11 -11 -11 -11 -11 -11 -11 -11 -11 -11 -10 -11 -10 -10 -10 -11 -10 -10
-10 -10 -10 -11 -11 -12 -12 -12 -12 -11 -11 -11 -11 -11 -11 -11 -11 -12 -12 -12 -11 -11 -11 -11 -11 -11 -11 -11 -11 -11 -11 -11 -11 -11 -11 -11 -11 -10 -10 -10 -11 -11 -10 -11 -11
-10 -10 -11 -11 -11 -11 -11 -11 -11 -11 -11 -11 -11 -11 -11 -12 -12 -12 -12 -12 -12 -12 -12 -12 -11 -11 -11 -11 -11 -11 -11 -11 -11 -11 -11 -11 -11 -10 -10 -10 -10 -10 -11 -11 -11
-10 -10 -11 -11 -11 -11 -11 -11 -11 -11 -11 -11 -12 -12 -12 -12 -12 -12 -12 -12 -12 -12 -12 -12 -12 -12 -12 -11 -11 -11 -11 -11 -11 -11 -11 -11 -11 -10 -10 -10 -10 -11 -11 -11 -11
-11 -11 -11 -11 -11 -11 -11 -11 -11 -11 -11 -12 -12 -12 -12 -12 -12 -13 -13 -12 -12 -12 -12 -12 -12 -12 -12 -12 -11 -11 -11 -11 -11 -11 -11 -10 -10 -10 -10 -10 -10 -11 -11 -11 -11
-11 -11 -11 -11 -11 -11 -11 -11 -11 -11 -12 -12 -12 -12 -12 -13 -13 -13 -13 -12 -12 -12 -12 -12 -12 -12 -12 -12 -12 -11 -11 -11 -11 -11 -11 -10 -10 -10 -11 -11 -11 -11 -11 -11 -12
-11 -11 -11 -11 -11 -11 -11 -11 -11 -11 -12 -12 -12 -12 -13 -13 -13 -13 -12 -12 -12 -12 -12 -12 -12 -12 -12 -12 -12 -11 -11 -11 -11 -11 -11 -11 -11 -11 -11 -11 -12 -12 -12 -11 -11
-11 -11 -11 -11 -11 -11 -11 -11 -11 -12 -12 -12 -12 -13 -13 -13 -13 -13 -13 -13 -13 -12 -12 -13 -13 -12 -12 -12 -12 -11 -11 -11 -11 -10 -11 -11 -11 -11 -11 -12 -12 -12 -12 -12 -12
-12 -11 -11 -11 -11 -11 -12 -12 -12 -12 -12 -12 -13 -13 -13 -13 -13 -13 -13 -13 -13 -13 -13 -13 -12 -12 -12 -12 -12 -11 -11 -10 -10 -10 -11 -11 -11 -12 -11 -12 -12 -12 -12 -12 -12
-12 -12 -12 -12 -12 -12 -12 -12 -12 -12 -12 -13 -13 -13 -13 -13 -13 -13 -13 -13 -13 -13 -13 -13 -13 -13 -12 -12 -12 -11 -11 -11 -11 -10 -10 -11 -11 -12 -12 -12 -12 -12 -12 -12 -12
-12 -12 -12 -12 -12 -12 -12 -12 -12 -12 -13 -13 -13 -13 -13 -13 -13 -13 -13 -13 -13 -13 -13 -13 -13 -13 -13 -13 -12 -12 -11 -11 -11 -11 -10 -10 -11 -12 -12 -12 -13 -13 -13 -13 -13
-12 -12 -12 -12 -12 -12 -12 -12 -13 -13 -13 -13 -13 -13 -13 -13 -13 -13 -13 -13 -13 -13 -13 -13 -13 -13 -13 -13 -13 -12 -12 -12 -12 -12 -11 -11 -11 -12 -12 -13 -13 -13 -13 -13 -13
-13 -13 -13 -12 -12 -12 -13 -13 -13 -13 -13 -13 -13 -13 -13 -14 -14 -14 -13 -13 -13 -13 -13 -13 -13 -13 -13 -13 -13 -13 -13 -13 -13 -12 -12 -11 -10 -12 -13 -14 -13 -13 -13 -14 -14
-13 -13 -13 -13 -13 -13 -13 -13 -13 -13 -14 -14 -14 -14 -14 -14 -14 -14 -13 -13 -13 -13 -13 -13 -13 -13 -12 -13 -13 -13 -13 -13 -13 -12 -13 -13 -10 -12 -14 -14 -14 -14 -15 -15 -15
-13 -13 -13 -13 -13 -13 -13 -13 -13 -14 -14 -14 -14 -14 -14 -13 -14 -13 -13 -13 -13 -13 -13 -13 -13 -13 -12 -13 -13 -13 -13 -14 -14 -13 -13 -13 -12 -14 -15 -14 -15 -15 -15 -15 -16
-13 -13 -14 -14 -14 -14 -14 -14 -14 -14 -14 -14 -14 -14 -14 -14 -14 -14 -13 -13 -14 -14 -14 -13 -13 -14 -13 -13 -13 -13 -13 -15 -15 -14 -14 -13 -14 -15 -16 -15 -15 -15 -15 -16 -16
-14 -14 -14 -14 -14 -14 -14 -14 -14 -14 -14 -14 -14 -14 -14 -14 -14 -14 -14 -14 -14 -14 -14 -14 -13 -14 -14 -14 -13 -13 -14 -15 -14 -15 -15 -14 -14 -16 -15 -16 -17 -17 -17 -17 -18
-14 -14 -14 -14 -14 -14 -14 -14 -14 -14 -14 -14 -14 -14 -14 -14 -14 -14 -14 -14 -14 -14 -14 -14 -14 -14 -13 -14 -14 -13 -14 -15 -15 -15 -15 -15 -14 -16 -15 -16 -17 -17 -17 -18 -19
-14 -14 -14 -14 -14 -14 -14 -14 -14 -14 -14 -14 -14 -14 -14 -14 -14 -14 -14 -14 -14 -14 -14 -15 -15 -15 -13 -14 -14 -13 -14 -14 -15 -15 -16 -16 -16 -16 -17 -17 -18 -18 -18 -19 -20
Height
5855 5854 5853 5853 5851 5850 5850 5849 5848 5847 5847 5846 5844 5843 5843 5842 5842 5841 5841 5840 5838 5837 5836 5835 5835 5834 5833 5833 5833 5833 5833 5832 5831 5830 5830 5829 5829 5827 5826 5825 5824 5823 5821 5819 5817
5854 5852 5852 5851 5850 5849 5849 5848 5847 5846 5845 5844 5843 5842 5841 5841 5840 5839 5838 5837 5836 5835 5834 5833 5832 5831 5830 5830 5830 5829 5829 5828 5828 5827 5826 5825 5825 5823 5823 5822 5820 5819 5817 5815 5813
5852 5851 5850 5849 5849 5848 5847 5846 5845 5844 5844 5843 5842 5841 5840 5839 5839 5837 5836 5834 5833 5832 5830 5829 5828 5828 5827 5826 5826 5825 5825 5824 5823 5822 5821 5821 5820 5819 5818 5817 5816 5815 5813 5811 5809
5850 5850 5849 5848 5847 5846 5845 5844 5843 5843 5842 5841 5840 5839 5838 5838 5838 5835 5833 5831 5830 5828 5827 5826 5825 5824 5823 5822 5821 5821 5820 5819 5819 5818 5817 5816 5816 5815 5814 5813 5812 5811 5808 5806 5804
5849 5849 5847 5846 5844 5843 5842 5842 5842 5841 5840 5839 5838 5837 5836 5835 5834 5832 5830 5829 5827 5825 5824 5823 5822 5821 5819 5818 5817 5816 5816 5815 5814 5813 5813 5812 5810 5810 5809 5808 5808 5805 5803 5801 5798
5848 5847 5845 5843 5842 5841 5840 5840 5839 5839 5838 5837 5836 5835 5834 5833 5831 5829 5827 5826 5824 5823 5821 5819 5818 5817 5815 5814 5813 5811 5811 5810 5809 5808 5807 5806 5805 5805 5805 5803 5802 5800 5798 5796 5793
5846 5845 5843 5841 5840 5839 5838 5838 5837 5837 5836 5835 5834 5833 5832 5831 5829 5826 5824 5822 5820 5818 5817 5815 5813 5812 5810 5809 5808 5806 5806 5804 5804 5803 5802 5801 5800 5799 5799 5798 5796 5794 5792 5789 5787
5844 5843 5841 5840 5839 5838 5837 5836 5836 5835 5834 5833 5832 5831 5829 5828 5825 5823 5821 5818 5816 5814 5813 5811 5809 5808 5806 5804 5803 5802 5801 5799 5798 5797 5796 5795 5794 5793 5794 5792 5790 5789 5786 5783 5782
5842 5841 5840 5839 5838 5837 5836 5836 5835 5834 5833 5832 5831 5829 5828 5825 5823 5821 5819 5817 5814 5813 5811 5809 5807 5805 5803 5801 5799 5797 5796 5794 5793 5792 5791 5790 5788 5789 5788 5786 5784 5783 5780 5778 5776
5840 5840 5839 5839 5838 5836 5836 5835 5834 5833 5832 5830 5829 5828 5826 5824 5821 5819 5818 5816 5814 5812 5810 5808 5805 5803 5801 5799 5797 5794 5792 5790 5789 5788 5786 5785 5784 5782 5782 5781 5779 5777 5774 5771 5769
5838 5838 5838 5837 5837 5836 5835 5835 5835 5834 5831 5829 5827 5826 5824 5822 5820 5819 5817 5815 5812 5810 5808 5806 5803 5801 5799 5796 5794 5791 5789 5787 5785 5783 5782 5779 5778 5776 5775 5774 5772 5769 5767 5764 5761
5837 5836 5836 5836 5836 5836 5835 5834 5833 5833 5830 5827 5826 5824 5823 5821 5820 5818 5816 5814 5811 5808 5805 5804 5800 5797 5795 5792 5789 5787 5784 5782 5781 5777 5776 5774 5772 5771 5769 5767 5765 5762 5760 5757 5753
5836 5836 5836 5836 5836 5835 5834 5833 5832 5830 5829 5827 5825 5824 5823 5822 5819 5817 5815 5812 5809 5806 5803 5800 5797 5794 5791 5787 5784 5781 5779 5776 5774 5772 5769 5767 5766 5765 5763 5760 5758 5756 5753 5750 5746
5836 5836 5836 5835 5836 5835 5834 5832 5831 5829 5828 5828 5825 5824 5822 5820 5819 5816 5814 5812 5809 5805 5801 5798 5793 5789 5785 5782 5779 5775 5772 5769 5767 5764 5763 5761 5758 5758 5756 5753 5751 5748 5745 5741 5738
5835 5835 5835 5835 5834 5834 5833 5832 5830 5829 5828 5827 5824 5822 5821 5820 5818 5815 5812 5809 5806 5803 5800 5795 5789 5784 5780 5776 5772 5769 5765 5762 5759 5757 5756 5754 5752 5751 5748 5745 5743 5740 5736 5733 5730
5834 5834 5834 5834 5833 5833 5831 5830 5829 5829 5826 5824 5822 5820 5819 5817 5814 5812 5809 5807 5803 5799 5795 5791 5784 5779 5774 5770 5767 5763 5759 5755 5752 5750 5749 5747 5745 5744 5742 5739 5736 5732 5729 5725 5722
5832 5832 5832 5832 5832 5831 5829 5829 5828 5826 5825 5823 5820 5818 5816 5814 5811 5808 5805 5802 5799 5795 5792 5788 5781 5775 5770 5765 5762 5758 5753 5748 5746 5744 5742 5740 5737 5737 5735 5732 5728 5724 5721 5716 5714
5829 5830 5830 5829 5829 5828 5827 5827 5825 5823 5821 5819 5817 5815 5813 5810 5808 5805 5801 5798 5794 5790 5784 5781 5778 5770 5764 5759 5755 5752 5748 5743 5738 5735 5734 5731 5730 5727 5728 5725 5720 5716 5712 5706 5702
5826 5827 5827 5827 5826 5825 5825 5823 5821 5820 5818 5815 5813 5811 5809 5806 5803 5800 5796 5793 5788 5784 5780 5772 5772 5766 5759 5753 5750 5746 5743 5739 5734 5730 5727 5725 5724 5721 5720 5715 5709 5705 5700 5698 5694
5823 5824 5824 5823 5822 5822 5821 5819 5817 5815 5813 5811 5809 5807 5804 5801 5798 5794 5791 5786 5781 5777 5773 5767 5763 5761 5754 5748 5744 5740 5737 5733 5728 5723 5718 5717 5713 5713 5711 5705 5700 5695 5690 5685 5681
5820 5820 5819 5819 5818 5817 5816 5814 5812 5810 5808 5806 5804 5801 5799 5795 5793 5789 5785 5780 5775 5770 5765 5758 5755 5754 5748 5742 5736 5733 5729 5726 5722 5716 5711 5708 5702 5704 5699 5692 5687 5681 5677 5673 5667
5816 5816 5815 5814 5814 5812 5811 5809 5808 5805 5803 5801 5798 5795 5792 5789 5785 5781 5778 5773 5768 5763 5756 5750 5744 5740 5739 5735 5728 5724 5722 5720 5715 5708 5703 5701 5693 5696 5690 5684 5676 5671 5666 5661 5653
5811 5811 5810 5809 5808 5807 5805 5803 5801 5799 5797 5794 5791 5788 5785 5782 5776 5773 5769 5765 5760 5755 5749 5740 5734 5730 5725 5727 5720 5714 5712 5711 5706 5699 5699 5688 5689 5682 5677 5671 5663 5658 5652 5646 5637
5805 5804 5804 5803 5802 5800 5798 5797 5794 5792 5789 5786 5783 5779 5776 5773 5768 5762 5758 5754 5750 5746 5742 5732 5727 5725 5719 5713 5707 5704 5701 5701 5695 5688 5685 5678 5676 5674 5667 5656 5649 5644 5638 5628 5621
5799 5798 5797 5796 5795 5793 5791 5789 5786 5782 5782 5778 5774 5770 5767 5763 5757 5753 5748 5744 5738 5735 5730 5722 5715 5713 5710 5706 5700 5693 5690 5688 5681 5679 5669 5672 5657 5655 5648 5641 5635 5632 5622 5614 5608
5791 5791 5790 5789 5787 5785 5782 5780 5777 5773 5771 5768 5764 5758 5756 5753 5744 5741 5736 5733 5726 5721 5716 5709 5703 5699 5695 5695 5689 5683 5683 5676 5671 5665 5657 5652 5649 5639 5633 5625 5622 5615 5607 5600 5592
5784 5782 5781 5781 5778 5776 5773 5768 5766 5762 5760 5755 5751 5747 5745 5740 5735 5731 5724 5717 5711 5705 5700 5694 5690 5686 5679 5678 5671 5667 5663 5660 5654 5648 5641 5635 5630 5622 5615 5610 5604 5595 5586 5580 5573
Wind_Speed
8 8 8 9 10 11 12 11 9 8 7 8 9 9 9 10 10 10 12 12 13 14 15 15 15 15 15 16 16 17 17 18 19 19 18 18 17 18 18 17 18 19 21 22 20
9 8 9 10 11 12 13 12 10 10 10 11 11 10 10 10 10 10 12 12 13 15 17 18 17 17 18 19 19 20 20 20 20 20 20 20 20 20 20 19 20 21 23 24 22
9 9 9 10 12 13 13 12 11 12 12 12 11 11 11 12 11 11 12 14 14 15 16 17 17 17 18 19 21 21 21 22 21 21 21 21 21 22 21 20 22 23 25 26 24
7 8 11 14 16 16 14 12 11 11 12 11 11 12 12 14 14 13 14 15 17 16 16 16 16 16 17 18 21 22 22 22 21 21 21 22 22 23 24 22 23 26 26 26 25
8 12 15 16 16 16 14 12 12 11 11 12 13 14 14 15 14 15 16 17 18 17 16 16 18 19 19 19 20 21 21 22 22 22 23 24 25 24 26 25 25 27 26 26 26
13 14 15 15 14 14 14 13 13 13 13 14 14 14 14 14 14 16 17 18 18 18 19 20 21 21 21 22 23 25 25 24 24 24 25 26 27 26 26 25 26 26 27 28 27
12 12 13 13 12 12 11 11 11 12 12 12 13 12 13 15 16 18 18 20 21 21 21 22 22 22 23 24 24 24 25 26 26 26 26 27 28 27 25 25 27 26 28 30 29
10 8 9 6 5 8 10 9 9 9 10 10 11 13 16 16 17 17 17 16 15 15 15 15 16 16 18 20 20 22 22 23 23 23 24 25 26 26 24 25 26 27 29 31 30
8 4 4 3 6 5 5 6 7 8 8 10 12 13 14 13 14 13 12 11 12 12 12 12 12 13 14 14 16 17 18 19 20 21 22 23 26 24 25 25 27 28 30 31 31
6 3 2 5 5 4 5 5 6 9 10 11 11 10 10 11 11 10 11 13 13 13 14 13 13 13 14 15 15 16 18 19 20 21 24 24 26 27 24 26 29 31 33 34 35
5 5 3 3 3 1 3 6 8 9 10 10 9 9 9 10 11 11 12 13 14 15 16 17 18 18 18 18 19 19 18 18 20 23 22 25 25 27 27 29 32 34 35 37 38
4 5 3 1 1 4 5 8 9 11 11 9 9 8 9 9 9 11 13 15 17 19 20 21 21 22 23 23 24 23 24 24 24 27 25 26 27 28 29 32 34 35 36 39 40
2 4 3 2 3 5 7 8 10 12 9 8 8 7 8 10 12 14 15 17 19 22 24 25 26 26 26 25 25 27 27 27 28 28 28 28 28 28 30 31 32 33 35 38 40
3 3 3 2 4 6 7 9 12 12 10 9 8 8 10 11 13 15 17 18 20 23 27 29 31 32 31 29 28 27 27 28 29 28 27 26 28 25 26 28 30 30 32 36 40
6 6 4 5 6 7 8 11 12 13 11 10 10 10 11 13 15 16 18 21 24 27 30 33 35 35 35 31 30 30 29 29 27 26 25 24 27 25 26 27 27 30 32 37 39
9 8 7 6 7 8 10 12 14 14 11 12 11 12 14 16 18 20 23 25 28 30 32 35 36 36 36 34 31 32 32 31 27 26 25 25 28 25 24 25 27 32 33 37 38
12 11 9 9 10 11 13 14 16 17 17 15 15 16 17 19 21 24 25 27 29 34 34 35 37 38 36 34 32 33 34 32 31 29 28 27 30 24 25 23 28 33 36 40 41
14 13 12 11 13 14 15 17 19 20 20 19 19 19 20 22 23 24 26 30 32 35 39 39 38 39 36 35 35 34 33 33 34 32 31 29 31 29 21 27 31 36 40 42 45
16 15 15 15 16 17 18 20 21 22 22 23 20 21 22 25 27 27 29 33 36 37 41 46 42 40 38 36 34 32 31 29 31 31 31 30 30 32 30 34 39 41 46 48 48
18 17 18 19 19 21 21 22 23 24 24 22 23 24 26 27 29 31 33 37 40 42 45 49 48 41 37 36 34 31 30 30 32 36 37 37 38 39 34 40 43 47 49 50 52
20 20 21 22 23 23 24 24 24 25 24 24 25 28 29 31 32 35 38 41 42 46 49 53 53 45 37 35 35 34 33 35 36 39 41 41 45 41 43 45 48 53 54 56 56
23 23 24 25 24 25 25 26 26 25 27 29 30 32 34 36 38 39 42 43 46 49 52 56 58 50 38 34 37 37 36 37 38 43 42 42 48 43 47 48 53 56 57 57 60
25 25 25 26 26 27 27 28 29 30 32 34 36 38 40 41 44 44 46 48 49 51 56 60 60 51 45 35 37 40 39 37 41 45 43 50 48 49 49 54 60 59 59 62 66
25 25 25 27 28 29 31 32 34 36 38 39 41 42 43 44 47 50 52 52 53 55 57 62 60 49 44 42 41 40 43 40 43 47 48 51 50 48 53 59 61 63 64 69 68
27 28 29 30 31 34 36 38 40 42 43 44 46 48 50 50 52 52 53 55 58 59 61 62 57 48 44 41 43 47 47 46 49 47 54 50 57 55 60 63 63 62 67 68 68
32 33 35 36 38 40 42 44 46 48 50 50 51 53 52 52 56 57 58 59 63 65 66 60 54 49 48 43 47 49 45 47 53 54 53 57 61 63 66 69 66 67 70 69 68
36 38 40 41 42 43 45 48 50 51 51 52 53 55 53 54 56 57 61 65 69 70 66 62 55 52 53 50 53 53 57 57 55 56 61 64 63 66 69 68 67 70 70 68 69
Wind_Direction
242 265 279 289 299 304 306 312 309 297 313 323 321 308 298 294 292 290 287 289 286 280 287 288 285 278 273 270 270 272 276 277 278 278 276 277 279 274 272 282 293 307 308 311 304
256 273 284 296 305 307 308 307 301 295 301 310 309 304 301 293 290 292 294 297 294 286 283 284 284 280 275 271 271 273 275 276 278 277 273 270 272 274 275 279 290 302 303 305 300
280 290 302 307 307 300 299 305 304 294 295 304 307 298 299 294 289 293 298 301 295 290 288 286 281 280 273 273 272 272 273 275 276 276 271 266 269 274 278 280 287 296 301 302 301
293 302 301 301 298 293 287 290 296 293 296 300 303 301 295 296 290 296 300 302 299 294 290 289 285 284 280 275 272 272 272 274 275 272 270 268 268 272 275 278 285 294 296 300 300
293 296 293 293 292 289 285 282 286 289 290 295 299 300 298 295 293 293 297 300 298 290 286 285 288 286 280 275 272 271 273 274 274 271 269 269 269 271 276 279 285 290 292 295 297
290 297 297 295 292 287 287 286 287 286 286 291 298 300 300 302 302 303 302 300 295 290 285 282 285 285 283 279 275 273 273 273 274 274 272 269 270 271 272 278 283 286 290 292 295
296 298 299 295 294 292 292 288 283 283 287 293 297 299 300 304 305 303 303 302 298 295 291 288 286 283 281 276 275 273 272 272 272 272 270 269 269 268 272 277 282 287 289 293 292
295 305 316 321 317 300 294 291 290 289 290 292 297 303 306 310 311 316 316 317 314 308 301 299 298 295 290 284 279 276 275 274 274 272 270 269 269 270 274 277 283 288 291 293 291
284 300 347 326 314 317 310 301 298 297 296 298 301 305 310 316 317 327 338 342 349 349 340 328 318 314 309 302 294 288 283 279 277 275 271 268 271 270 276 280 284 285 291 295 293
263 245 322 317 316 332 330 326 318 310 306 307 307 312 319 329 335 340 336 340 344 344 343 340 334 323 312 305 302 296 290 286 281 279 276 273 272 278 278 282 284 285 291 297 295
263 231 243 326 313 359 328 322 323 318 316 316 320 323 331 336 337 346 347 349 345 338 330 327 322 318 313 307 300 295 291 287 287 284 280 280 279 282 283 285 287 288 292 295 297
249 221 224 238 281 323 329 328 329 324 321 321 326 331 341 347 356 356 356 353 350 345 341 334 328 319 310 302 297 294 291 287 285 286 284 281 278 279 280 284 286 291 294 295 295
187 199 199 223 300 324 322 326 331 335 329 326 330 331 341 354 358 357 350 344 341 339 337 332 327 321 316 309 300 294 289 286 283 279 284 283 276 275 281 284 287 290 292 293 294
204 205 224 246 292 309 319 334 339 337 330 325 331 332 337 340 339 337 333 330 327 330 330 330 329 325 321 316 312 308 301 295 287 283 279 280 280 277 284 286 287 291 291 292 293
223 219 218 266 289 308 318 327 333 334 331 319 321 323 320 321 322 323 321 321 324 327 328 327 325 323 319 315 314 313 310 306 300 292 288 285 284 290 291 291 293 291 290 290 290
219 220 247 263 281 295 302 312 323 325 319 306 303 306 309 312 313 315 319 321 325 328 330 329 324 320 317 313 310 311 310 308 304 298 293 290 289 294 295 298 294 288 289 290 294
220 232 242 258 276 289 296 302 309 315 317 309 299 303 308 310 313 317 320 323 327 329 330 329 327 321 317 314 310 311 313 310 307 306 303 302 297 302 303 301 295 293 295 296 298
236 243 247 260 276 286 294 298 302 306 309 307 298 298 304 308 310 313 317 321 324 327 329 331 335 324 317 314 313 312 314 313 311 311 311 309 309 306 311 304 296 297 297 295 297
239 248 258 267 277 283 290 295 297 297 302 303 297 298 303 307 309 312 314 318 319 323 326 328 331 329 318 313 314 312 312 311 310 307 307 307 307 307 316 305 302 303 299 301 302
244 253 263 272 277 282 288 292 292 295 299 298 298 300 304 306 308 311 314 315 318 321 323 324 325 323 315 311 308 310 310 312 311 308 306 308 303 312 312 305 305 301 299 299 303
254 260 268 274 278 281 285 288 288 292 294 296 297 300 303 304 307 308 310 311 315 318 320 322 323 322 311 306 302 300 302 306 306 303 304 307 304 314 309 307 302 299 301 303 303
262 266 272 276 278 280 283 286 287 289 291 294 295 297 299 302 304 304 306 308 311 313 316 318 320 319 307 301 295 296 299 301 301 301 300 302 301 308 305 298 296 298 300 302 300
268 271 274 276 280 283 284 284 286 287 289 293 295 296 297 301 302 303 305 307 308 310 315 316 317 317 309 303 296 293 296 301 301 298 304 296 310 302 299 298 298 298 299 299 297
268 271 274 278 281 282 283 284 287 289 291 293 294 295 297 300 302 304 305 305 306 308 314 314 313 311 311 306 301 299 297 301 297 298 299 301 302 298 297 296 297 297 299 298 298
273 274 277 279 280 282 284 286 287 288 289 291 292 294 297 299 298 299 301 302 304 308 311 311 309 305 302 300 297 297 299 305 299 301 297 303 298 299 297 297 297 299 295 294 294
274 276 278 281 283 285 286 287 288 288 290 292 293 293 295 297 296 299 299 301 303 307 311 307 305 301 298 301 298 295 303 299 300 298 299 297 298 297 295 293 295 294 294 295 295
276 279 282 285 287 290 292 292 292 291 293 293 293 293 295 295 296 297 297 299 302 305 305 303 303 302 299 301 299 298 300 304 301 300 298 296 296 293 293 296 297 296 298 298 297